sat.trackr.live / text

‹ back to catalog

TELSTAR 19V

NORAD 43562 · 2018-059A

PAYLOAD ACTIVE UNKNOWN

§ Identity

Operator
Country
CA
Launch date
2018-07-22
Launch site
AFETR
Launch vehicle
Mass (kg)
RCS (m²)

Purposes: comms

External: N2YO · Heavens-Above · Gunter

§ Orbital elements

Epoch: 2026-09-19T10:40:44.016960Z

Period
1,436.07 min
Inclination
0.0090°
Eccentricity
0.0002376
Mean motion
1.00273886 rev/d
Perigee alt
35,776.0 km
Apogee alt
35,796.0 km
Semi-major
42,164.1 km
B*
0.0000e+0
RAAN
156.2512°
Arg perigee
19.8956°
Mean anomaly
279.3944°
Rev number
3,008

§ Raw data

TELSTAR 19V1 43562U 18059A   26262.44495390 -.00000284  00000+0  00000+0 0  99922 43562   0.0090 156.2512 0002376  19.8956 279.3944  1.00273886 30083

JSON: /api/v1/satellites/43562 · /tle

For live sub-satellite position, see the globe view (requires WebGL).

§ Visibility from observer

Set your observer location to see the next 7 days of passes ≥ 10°. The values pass through the URL so the page stays shareable.

No JS? Fill the form by hand. The geolocation button needs JavaScript.